FW0788 Weather Reports


Display with metric or nautical units.
time (UTC)temp
F
wind
direction
speed
MPH
gust
MPH
rain 1hr
in
rain 24hr
in
rain mn
in
humidity
%
barometer
mb
20260831083036 53 139 0.0 0.0 0.00 0.00 0.00 84 1022.9
20260831081529 53 250 0.0 0.0 0.00 0.00 0.00 84 1023.0
20260831080025 53 236 0.0 0.0 0.00 0.00 0.00 83 1023.1
20260831074519 54 90 0.0 9.0 0.00 0.00 0.00 82 1023.0
20260831073017 55 134 0.0 9.0 0.00 0.00 0.00 81 1023.1
20260831071526 55 149 1.0 7.0 0.00 0.00 0.00 79 1023.2
20260831070026 56 145 2.0 10.0 0.00 0.00 0.00 78 1023.2
20260831064515 57 196 4.0 13.0 0.00 0.00 0.00 75 1023.3
20260831063012 59 188 4.0 8.0 0.00 0.00 0.00 74 1023.4
20260831061511 59 107 3.0 9.0 0.00 0.00 0.00 74 1023.6
20260831060011 59 103 3.0 10.0 0.00 0.00 0.00 74 1023.5
20260831054509 60 173 3.0 11.0 0.00 0.00 0.00 73 1023.6
20260831053009 60 211 2.0 11.0 0.00 0.00 0.00 73 1023.6
20260831051507 60 165 5.0 16.0 0.00 0.00 0.00 72 1023.6
20260831050007 60 229 5.0 13.0 0.00 0.00 0.00 71 1023.5
20260831044507 61 160 4.0 18.0 0.00 0.00 0.00 70 1023.8
20260831043007 61 147 6.0 13.0 0.00 0.00 0.00 70 1023.8
20260831041508 61 184 5.0 13.0 0.00 0.00 0.00 68 1023.9
20260831040001 62 146 4.0 17.0 0.00 0.00 0.00 68 1024.1
20260831034605 62 119 5.0 10.0 0.00 0.00 0.00 67 1024.3
20260831033058 62 133 3.0 10.0 0.00 0.00 0.00 66 1024.4
20260831031601 61 102 2.0 11.0 0.00 0.00 0.00 68 1024.7
20260831030058 61 166 4.0 11.0 0.00 0.00 0.00 66 1024.9
20260831024612 62 134 3.0 8.0 0.00 0.00 0.00 66 1025.0
20260831023054 61 217 2.0 10.0 0.00 0.00 0.00 67 1025.2
20260831021552 61 125 1.0 9.0 0.00 0.00 0.00 66 1025.3
20260831020106 62 169 3.0 7.0 0.00 0.00 0.00 63 1025.5
20260831014601 61 229 2.0 8.0 0.00 0.00 0.00 63 1025.7
20260831013048 61 123 3.0 9.0 0.00 0.00 0.00 64 1025.7
20260831011546 61 194 1.0 10.0 0.00 0.00 0.00 65 1025.9
20260831010048 60 151 2.0 8.0 0.00 0.00 0.00 67 1026.0
20260831004541 59 175 4.0 8.0 0.00 0.00 0.00 67 1026.1
20260831003039 59 184 4.0 10.0 0.00 0.00 0.00 66 1026.1
20260831001542 59 161 3.0 9.0 0.00 0.00 0.00 66 1026.2
20260831000033 58 130 3.0 9.0 0.00 0.00 0.00 67 1026.2
20260830234541 57 227 0.0 6.0 0.00 0.00 0.00 67 1026.2
20260830233025 57 167 1.0 5.0 0.00 0.00 0.00 67 1026.2
20260830231522 56 175 2.0 8.0 0.00 0.00 0.00 68 1026.3
20260830230031 55 250 1.0 5.0 0.00 0.00 0.00 72 1026.4
20260830224525 53 288 0.0 0.0 0.00 0.00 0.00 78 1026.4
20260830223017 49 115 0.0 0.0 0.00 0.00 0.00 83 1026.4
20260830221508 46 115 0.0 0.0 0.00 0.00 0.00 84 1026.4
20260830220020 45 83 0.0 0.0 0.00 0.00 0.00 87 1026.4
20260830214505 43 83 0.0 0.0 0.00 0.00 0.00 87 1026.3
20260830213111 40 128 0.0 0.0 0.00 0.00 0.00 92 1026.0
20260830211606 39 129 0.0 0.0 0.00 0.00 0.00 90 1026.0
20260830210054 39 129 0.0 0.0 0.00 0.00 0.00 89 1025.8
20260830204552 39 129 0.0 0.0 0.00 0.00 0.00 89 1025.8
20260830203049 39 129 0.0 0.0 0.00 0.00 0.00 88 1025.8
20260830201607 39 129 0.0 0.0 0.00 0.00 0.00 87 1025.8
20260830200045 40 129 0.0 0.0 0.00 0.00 0.00 87 1025.7
20260830194541 41 129 0.0 0.0 0.00 0.00 0.00 86 1025.6
20260830193042 41 72 0.0 0.0 0.00 0.00 0.00 84 1025.6
20260830191537 43 73 0.0 0.0 0.00 0.00 0.00 81 1025.4
20260830190037 48 75 0.0 6.0 0.00 0.00 0.00 74 1025.3
20260830184535 46 168 1.0 4.0 0.00 0.00 0.00 79 1025.2
20260830183029 44 165 0.0 0.0 0.00 0.00 0.00 82 1025.2
20260830181527 45 165 0.0 5.0 0.00 0.00 0.00 79 1025.2
20260830180025 47 111 1.0 4.0 0.00 0.00 0.00 76 1025.1
20260830174527 45 98 0.0 4.0 0.00 0.00 0.00 80 1025.1
20260830173027 47 51 0.0 4.0 0.00 0.00 0.00 78 1025.1
20260830171518 49 142 0.0 5.0 0.00 0.00 0.00 75 1025.0
20260830170016 48 144 0.0 0.0 0.00 0.00 0.00 75 1025.0
20260830164514 48 190 0.0 4.0 0.00 0.00 0.00 77 1025.0
20260830163012 49 132 0.0 8.0 0.00 0.00 0.00 77 1025.0
20260830161509 49 150 0.0 0.0 0.00 0.00 0.00 78 1025.4
20260830160007 50 207 0.0 0.0 0.00 0.00 0.00 77 1025.6
20260830154506 50 111 0.0 0.0 0.00 0.00 0.00 77 1025.7
20260830153018 50 123 0.0 6.0 0.00 0.00 0.00 78 1025.6
20260830151510 50 173 0.0 0.0 0.00 0.00 0.00 79 1025.6
20260830150002 50 207 0.0 4.0 0.00 0.00 0.00 78 1025.4
20260830144600 51 87 0.0 8.0 0.00 0.00 0.00 78 1025.3
20260830143106 51 142 0.0 8.0 0.00 0.00 0.00 79 1025.3
20260830141556 51 92 0.0 9.0 0.00 0.00 0.00 79 1025.3
20260830140053 51 156 0.0 2.0 0.00 0.00 0.00 79 1025.3
20260830134555 51 236 0.0 2.0 0.00 0.00 0.00 79 1025.4
20260830133052 51 269 0.0 5.0 0.00 0.00 0.00 79 1025.5
20260830131552 51 332 0.0 4.0 0.00 0.00 0.00 77 1025.5
20260830130054 51 330 0.0 0.0 0.00 0.00 0.00 75 1025.4
20260830124558 52 84 1.0 4.0 0.00 0.00 0.00 73 1025.3
20260830123056 52 64 0.0 8.0 0.00 0.00 0.00 73 1025.3
20260830121549 52 146 0.0 7.0 0.00 0.00 0.00 72 1025.2
20260830120053 53 16 0.0 4.0 0.00 0.00 0.00 71 1025.1
20260830114556 53 107 0.0 7.0 0.00 0.00 0.00 71 1025.1
20260830113047 53 329 0.0 0.0 0.00 0.00 0.00 74 1025.0
20260830111547 54 329 0.0 2.0 0.00 0.00 0.00 73 1025.0
20260830110048 54 89 1.0 9.0 0.00 0.00 0.00 74 1024.9
20260830104546 54 171 6.0 12.0 0.00 0.00 0.00 78 1024.8
20260830103045 54 107 0.0 8.0 0.00 0.00 0.00 78 1024.8
20260830101544 55 119 5.0 14.0 0.00 0.00 0.00 78 1024.6
20260830100044 55 137 3.0 10.0 0.00 0.00 0.00 77 1024.3
20260830094604 55 69 4.0 12.0 0.00 0.00 0.00 76 1024.3
20260830093043 56 198 4.0 12.0 0.00 0.00 0.00 76 1024.4
20260830091542 56 137 2.0 12.0 0.00 0.00 0.00 74 1024.2
20260830090047 56 140 4.0 15.0 0.00 0.00 0.00 74 1024.1
20260830084641 56 130 1.0 11.0 0.00 0.00 0.00 75 1023.9